Location: Unspecified
(43.4354°N, 0.0000°E)
Time: 10:27:45
(UTC+00:00)

Vanguard 2 Rocket - Pass Details

Date: 23 June 2019
Orbit: 554 x 3326 km, 32.9° (Epoch: 19 July)

Event Time Altitude Azimuth Distance (km) Brightness Sun altitude
Rises 05:22:08 0° 269° (W) 6,695 10.7 9.1°
Reaches altitude 10° 05:30:44 10° 246° (WSW) 6,094 10.5 10.5°
Maximum altitude 05:37:28 13° 226° (SW) 6,009 10.6 11.6°
Drops below altitude 10° 05:44:25 10° 205° (SSW) 6,263 10.8 12.8°
Sets 05:53:52 0° 182° (S) 7,042 11.2 14.4°
